"Pseudo-MPEC" for P20TYXV

Created 2019 Nov 9 5:07:25 UT using Find_Orb

Click here for an explanation of pseudo-MPECs

 
 Astrometry: 
     P20TYXV  C2019 10 25`:#se5A]2!X2oqQuLU6MNlOx4b05?q)CDnXfuoRPMExp@JvO:#$`F52
     P20TYXV  C2019 10 25Rt:3dZ^mW(biH7^gesfci-g?\'B`gu=iPZ#4MZi#?ZasGlhC5u0TF52
     P20TYXV  C2019 10 251kQLYiOIs/M-\a#eB`pb-bPAstrometry*x%;,j,7?=_ngX#ne:UF52
     P20TYXV  C2019 11 02Ct@?Z!5vbxlP+a6vnNlgER62d9Z*-6M'0l1(lsZs@d$'TO(G=NSSF52
     P20TYXV  C2019 11 02:=FuG.eNiuA_a#R47KT!O\U^e^+(285LU6!WDf_gZM#]%7tPFOY\F52
     P20TYXV  C2019 11 02+=Gi*!:s'J/]'-I@uredacted;?!HB8'43WZbjpm.=60!k%uMO*0F52
     P20TYXV  C2019 11 04083PgS+iODpc1'wMKmuYe1Df##aPRF:b^Ml%Zxn0clickBMSE%prF51
     P20TYXV  C2019 11 04!*73($j+?t7e4y#;E(vhereCP`en3rm8SeTHA*ZeiT_?MYwi$%?HF51
     P20TYXV  C2019 11 040%g$l:r_mjJ!lwv;beoEhO$er(E7*Upr3c2_HYOLZA,W=Gt\pP[9F51
     P20TYXV  C2019 11 08.25838 03 06 36.36 +04 30 14.7    ~B86q 19.8 GVNEOCPG96
     P20TYXV  C2019 11 08.26215 03 06 35.60 +04 29 33.6    ~B86q 19.9 GVNEOCPG96
     P20TYXV  C2019 11 08.26592 03 06 34.87 +04 28 52.8    ~B86q 19.9 GVNEOCPG96
     P20TYXV  C2019 11 08.26971 03 06 34.09 +04 28 10.7    ~B86q 19.8 GVNEOCPG96
     P20TYXV KC2019 11 08%_$RB#iL2:xF#ford+%w[QXV7iN_=0/mFHM+'%'*n.q.`=e%j]uZ734
     P20TYXV KC2019 11 08n3$BLAR[5R^b8eg?I5'@xh]=m`bow7*kJ.3PO@frJZd5!*8k1YCy734
     P20TYXV KC2019 11 08p`F0H.`FSd.Ao7;[0g_jRtF6f7GEZ!@!LC=4]=B!Kcp=XQMy6=Qd734
     P20TYXV KC2019 11 08.95858403 04 27.54 +02 20 01.0    ~B907 20.4 GVNEOCPJ95
     P20TYXV SC2019 11 08.97075703 04 25.06 +02 17 43.2    ~B907 20.0 GVNEOCPJ95
     P20TYXV KC2019 11 09cgQTiPhDlcEs,=-C4OD:l;W$F*$7!/U?Q`st7b)K=V14dTImxc:mH36
     P20TYXV KC2019 11 09t:XB+Y,`x]GLW^huAmlx$'2*cexplanationdG#XABLyW2J=eadkH36

Station data:
(734) Farpoint Observatory, Eskridge  (N38.890107 W96.001400)  US/Kansas.
   Observer G. Hug. 0.69-m reflector + CCD.
(F51) Pan-STARRS 1, Haleakala  (N20.707235 W156.255910)  US/Hawaii.
   Observers N. Primak, A. Schultz, S. Watters, J. Thiel, T. Goggia. Measurer
   PS1 Science Consortium. 1.8-m Ritchey-Chrétien + CCD.
(F52) Pan-STARRS 2, Haleakala  (N20.707384 W156.255910)  US/Hawaii. 1.8-m
   Ritchey-Chrétien + CCD.
(G96) Mt. Lemmon Survey  (N32.442754 W110.788720)  US/Arizona.  Observers T.
   A. Pruyne, B. M. Africano, E. J. Christensen, G. A. Farneth, D. C. Fuls,
   A. R. Gibbs, A. D. Grauer, H. Gröller, J. A. Johnson, R. A. Kowalski, S.
   M. Larson, G. J. Leonard, D. Rankin, R. L. Seaman, F. C. Shelly. 1.5-m
   reflector + 10K CCD.
(H36) Sandlot Observatory, Scranton  (N38.797693 W95.706400)  US/Kansas.
   Observer G. Hug. 0.56-m reflector + CCD.
(J95) Great Shefford  (N51.474969 W1.447003)  UK.  Observer P. Birtwhistle.
   0.40-m f/6.0 Schmidt-Cassegrain + CCD.

Orbital elements:  P20TYXV
   Perihelion 2020 Jan 29.974516 +/- 0.0574 TT = 23:23:18 (JD 2458878.474516)
Epoch 2019 Nov  9.0 TT = JDT 2458796.5   Earth MOID: 0.1078   Ve: 0.0407
M 289.52019618 +/- 0.14             (J2000 ecliptic)          AutoNEOCP
n   0.85977700 +/- 0.00112          Peri.  301.74710 +/- 0.038
a   1.09533129 +/- 0.00095          Node   221.51888 +/- 0.0038
e   0.4044670 +/- 0.000781          Incl.   22.19334 +/- 0.06
P   1.15/418.71d           H 23.7   G  0.15   U  8.2  
q 0.65230584 +/- 0.000289    Q 1.53835675 +/- 0.00219
From 20 observations 2019 Oct. 25-Nov. 9; mean residual 0".40
Residuals in arcseconds: 
191025 F52  .03+  .41-    191104 F51  .02-  .17+    191108 734  .00   .12+    
191025 F52  .12+  .15+    191104 F51  .06+  .20+    191108 734  .63-  .23-    
191025 F52  .09-  .14+    191108 G96  .27-  .37+    191108 J95  .14+  .17-    
191102 F52  .12+  .05+    191108 G96  .32-  .22+    191108 J95  .25+  .82+    
191102 F52  .01-  .05-    191108 G96  .08+  .40+    191109 H36  1.4-  .79+    
191102 F52  .01+  .30+    191108 G96  .19-  .50-    191109 H36  .67+  .69-    
191104 F51  .06-  .06+    191108 734  .15+  .63-    

Ephemerides (geocentric):
Date (UTC) HH   RA              Dec         delta   r     elong  mag " sig PA
---- -- -- --  -------------   -----------  ------ ------ -----  --- ---- ---
2019 11 09 05  03 03 39.553   +01 33 00.18  .13547 1.1219 164.7 20.4 .291 169
2019 11 09 06  03 03 31.588   +01 24 56.92  .13528 1.1216 164.6 20.4 .301 169
2019 11 09 07  03 03 23.601   +01 16 52.37  .13509 1.1213 164.4 20.4 .311 169
2019 11 09 08  03 03 15.593   +01 08 46.52  .13490 1.1211 164.3 20.4 .321 169
2019 11 09 09  03 03 07.562   +01 00 39.38  .13471 1.1208 164.2 20.4 .331 169
2019 11 09 10  03 02 59.509   +00 52 30.95  .13453 1.1205 164.0 20.4 .342 169
2019 11 09 11  03 02 51.434   +00 44 21.22  .13434 1.1202 163.9 20.4 .352 169
2019 11 09 12  03 02 43.337   +00 36 10.21  .13416 1.1200 163.8 20.4 .363 169
2019 11 09 13  03 02 35.217   +00 27 57.92  .13397 1.1197 163.6 20.4 .374 169
2019 11 09 14  03 02 27.076   +00 19 44.34  .13379 1.1194 163.5 20.4 .385 169
2019 11 09 15  03 02 18.912   +00 11 29.48  .13361 1.1192 163.3 20.4 .397 169
2019 11 09 16  03 02 10.725   +00 03 13.34  .13342 1.1189 163.2 20.4 .408 169
2019 11 09 17  03 02 02.516   -00 05 04.07  .13324 1.1186 163.0 20.4 .420 169
2019 11 09 18  03 01 54.285   -00 13 22.76  .13306 1.1183 162.9 20.4 .432 169
2019 11 09 19  03 01 46.031   -00 21 42.73  .13289 1.1181 162.7 20.4 .444 169
2019 11 09 20  03 01 37.755   -00 30 03.96  .13271 1.1178 162.6 20.4 .456 170
2019 11 09 21  03 01 29.456   -00 38 26.45  .13253 1.1175 162.5 20.4 .468 170
2019 11 09 22  03 01 21.134   -00 46 50.21  .13235 1.1173 162.3 20.4 .481 170
2019 11 09 23  03 01 12.789   -00 55 15.24  .13218 1.1170 162.2 20.4 .493 170
2019 11 10 00  03 01 04.422   -01 03 41.52  .13201 1.1167 162.0 20.4 .506 170
2019 11 10 01  03 00 56.031   -01 12 09.05  .13183 1.1164 161.9 20.4 .519 170
2019 11 10 02  03 00 47.618   -01 20 37.84  .13166 1.1162 161.7 20.4 .533 170
2019 11 10 03  03 00 39.182   -01 29 07.88  .13149 1.1159 161.6 20.4 .546 170
2019 11 10 04  03 00 30.722   -01 37 39.16  .13132 1.1156 161.4 20.4 .560 170
2019 11 10 05  03 00 22.240   -01 46 11.69  .13115 1.1154 161.3 20.4 .573 170
2019 11 10 06  03 00 13.734   -01 54 45.45  .13098 1.1151 161.1 20.4 .587 171
2019 11 10 07  03 00 05.206   -02 03 20.45  .13081 1.1148 160.9 20.4 .602 171
2019 11 10 08  02 59 56.654   -02 11 56.68  .13065 1.1145 160.8 20.4 .616 171
2019 11 10 09  02 59 48.078   -02 20 34.15  .13048 1.1143 160.6 20.4 .630 171
2019 11 10 10  02 59 39.480   -02 29 12.83  .13032 1.1140 160.5 20.4 .645 171
2019 11 10 11  02 59 30.857   -02 37 52.74  .13015 1.1137 160.3 20.4 .660 171
2019 11 10 12  02 59 22.212   -02 46 33.87  .12999 1.1135 160.2 20.4 .675 171
2019 11 10 13  02 59 13.542   -02 55 16.21  .12983 1.1132 160.0 20.4 .691 171
2019 11 10 14  02 59 04.850   -03 03 59.75  .12967 1.1129 159.8 20.4 .706 171
2019 11 10 15  02 58 56.133   -03 12 44.51  .12951 1.1126 159.7 20.4 .722 171
2019 11 10 16  02 58 47.393   -03 21 30.46  .12935 1.1124 159.5 20.4 .738 172
2019 11 10 17  02 58 38.629   -03 30 17.61  .12919 1.1121 159.4 20.4 .754 172
2019 11 10 18  02 58 29.841   -03 39 05.95  .12904 1.1118 159.2 20.4 .770 172
2019 11 10 19  02 58 21.029   -03 47 55.49  .12888 1.1116 159.0 20.4 .787 172
2019 11 10 20  02 58 12.193   -03 56 46.20  .12873 1.1113 158.9 20.4 .803 172
2019 11 10 21  02 58 03.334   -04 05 38.09  .12857 1.1110 158.7 20.4 .820 172
2019 11 10 22  02 57 54.450   -04 14 31.16  .12842 1.1107 158.6 20.4 .837 172
2019 11 10 23  02 57 45.542   -04 23 25.39  .12827 1.1105 158.4 20.4 .855 172
2019 11 11 00  02 57 36.610   -04 32 20.79  .12812 1.1102 158.2 20.4 .872 173
2019 11 11 01  02 57 27.653   -04 41 17.35  .12797 1.1099 158.1 20.5 .890 173
2019 11 11 02  02 57 18.672   -04 50 15.06  .12782 1.1096 157.9 20.5 .908 173
2019 11 11 03  02 57 09.667   -04 59 13.92  .12767 1.1094 157.7 20.5 .926 173
2019 11 11 04  02 57 00.638   -05 08 13.92  .12753 1.1091 157.6 20.5 .944 173